Location: Vulcan
(50.4000°N, 113.2500°W)
Time: 19:48:45
(UTC-06:00)

Envisat - Visible Passes

Search period start: 24 March 2019 00:00
Search period end: 03 April 2019 00:00
Orbit: 764 x 766 km, 98.2° (Epoch: 24 March)

Date Brightness Start Highest point End Pass type
(mag) Time Alt. Az. Time Alt. Az. Time Alt. Az.
24 Mar 5.8 21:29:18 10° SW 21:32:36 17° W 21:35:55 10° NW visible
25 Mar 4.9 20:50:53 10° SSW 20:55:27 33° W 21:00:04 10° NNW visible
26 Mar 6.4 21:58:15 10° W 21:58:32 10° W 21:58:50 10° W visible
27 Mar 5.7 21:17:26 10° SW 21:21:14 21° W 21:25:04 10° NW visible
28 Mar 4.5 20:39:22 10° SSW 20:44:09 41° W 20:48:58 10° NNW visible
29 Mar 6.0 21:44:54 10° WSW 21:47:08 13° W 21:49:22 10° WNW visible
30 Mar 5.4 21:05:43 10° SSW 21:09:54 25° W 21:14:07 10° NW visible
31 Mar 4.1 20:27:57 10° S 20:32:52 50° W 20:37:51 10° NNW visible
01 Apr 5.9 21:32:42 10° SW 21:35:45 16° W 21:38:49 10° NW visible
02 Apr 5.0 20:54:06 10° SSW 20:58:35 31° W 21:03:06 10° NNW visible
